Hourly Data Report for May 15, 2019

MIRAMICHI RCS
NEW BRUNSWICK
Current Station Operator: ECCC - MSC

47°00'34.000" N
65°27'54.000" W
33.00 m
8100989
71744
ACQ

Download Data

Hourly Data (May 2019)
Hourly Data Report for May 15, 2019
TIME
LST
Temp Definition
°C
Dew Point Definition
°C
Rel Hum Definition
%
Precip. Amount Definition
mm

Wind Dir Definition
10's deg

Wind Spd Definition
km/h
Visibility Definition
km
Stn Press Definition
kPa
Hmdx Definition


Wind Chill Definition


Weather Definition


00:00 2.7 1.6 93 1.0 4 17   100.74     LegendNANA
01:00 2.9 1.5 90 0.7 6 17   100.65     LegendNANA
02:00 2.6 1.5 92 1.3 5 20   100.52     LegendNANA
03:00 2.4 1.4 93 1.8 5 20   100.48     LegendNANA
04:00 2.3 1.1 92 0.8 5 25   100.39     LegendNANA
05:00 2.5 1.2 91 0.5 6 31   100.36     LegendNANA
06:00 2.9 1.7 92 0.3 6 31   100.34     LegendNANA
07:00 2.7 1.4 91 0.3 6 36   100.32     LegendNANA
08:00 2.5 1.4 92 0.5 6 40   100.30     LegendNANA
09:00 2.8 1.7 93 1.1 6 35   100.25     LegendNANA
10:00 2.7 1.8 94 2.0 6 32   100.24     LegendNANA
11:00 2.8 1.8 93 1.3 5 27   100.21     LegendNANA
12:00 3.3 2.4 94 1.7 6 31   100.18     LegendNANA
13:00 3.2 2.2 93 0.7 6 32   100.15     LegendNANA
14:00 3.1 2.2 94 0.6 5 26   100.15     LegendNANA
15:00 3.2 2.2 94 0.5 5 24   100.11     LegendNANA
16:00 3.0 2.0 93 0.2 5 24   100.12     LegendNANA
17:00 2.7 1.8 94 0.2 4 19   100.12     LegendNANA
18:00 2.8 1.8 93 0.0 4 19   100.11     LegendNANA
19:00 2.4 1.6 94 0.2 3 16   100.12     LegendNANA
20:00 2.8 1.9 94 0.3 2 12   100.14     LegendNANA
21:00 2.3 1.5 94 0.0 1 8   100.16     LegendNANA
22:00 2.6 1.8 95 0.2 1 9   100.15     LegendNANA
23:00 2.7 1.6 93 0.0 2 9   100.12     LegendNANA

Notes on Data Quality.

Legend

  • E = Estimated
  • M = Missing
  • NA = Not Available*
  • [empty] = Indicates an unobserved value
Date modified: